GW4614 Weather Reports


Display with metric or nautical units.
time (UTC)temp
F
wind
direction
speed
MPH
gust
MPH
rain 1hr
in
rain 24hr
in
rain mn
in
humidity
%
barometer
mb
20260509212423 69 8 3.0 4.0 0.00 0.00 0.00 46 1009.7
20260509211919 68 34 4.0 6.0 0.00 0.00 0.00 45 1009.7
20260509211415 68 349 4.0 4.0 0.00 0.00 0.00 48 1009.8
20260509210911 68 322 3.0 3.0 0.00 0.00 0.00 48 1009.7
20260509210409 68 316 3.0 4.0 0.00 0.00 0.00 49 1009.6
20260509205904 68 320 2.0 3.0 0.00 0.00 0.00 49 1009.6
20260509205403 68 330 4.0 6.0 0.00 0.00 0.00 45 1009.4
20260509204900 67 354 0.0 1.0 0.00 0.00 0.00 45 1009.6
20260509204356 67 330 2.0 3.0 0.00 0.00 0.00 47 1009.5
20260509203853 67 57 0.0 0.0 0.00 0.00 0.00 45 1009.5
20260509203349 67 338 1.0 3.0 0.00 0.00 0.00 46 1009.3
20260509202846 68 264 2.0 2.0 0.00 0.00 0.00 43 1009.4
20260509202342 68 345 3.0 3.0 0.00 0.00 0.00 44 1009.3
20260509201837 68 187 0.0 4.0 0.00 0.00 0.00 45 1009.5
20260509201333 67 40 0.0 3.0 0.00 0.00 0.00 47 1009.4
20260509200830 68 319 0.0 0.0 0.00 0.00 0.00 46 1009.3
20260509200325 68 241 3.0 6.0 0.00 0.00 0.00 47 1009.4
20260509195822 68 37 2.0 4.0 0.00 0.00 0.00 49 1009.3
20260509195322 68 335 2.0 4.0 0.00 0.00 0.00 51 1009.2
20260509194822 68 52 2.0 3.0 0.00 0.00 0.00 52 1009.6
20260509194318 67 57 2.0 2.0 0.00 0.00 0.00 49 1009.4
20260509193815 66 101 4.0 7.0 0.00 0.00 0.00 52 1009.5
20260509193315 67 59 6.0 7.0 0.00 0.00 0.00 52 1009.8
20260509192811 67 105 3.0 3.0 0.00 0.00 0.00 50 1009.7
20260509192307 68 181 0.0 2.0 0.00 0.00 0.00 49 1009.6
20260509191802 67 168 1.0 2.0 0.00 0.00 0.00 48 1009.9
20260509191259 67 169 3.0 8.0 0.00 0.00 0.00 53 1009.9
20260509190755 66 116 1.0 3.0 0.00 0.00 0.00 50 1009.8
20260509190252 67 106 2.0 8.0 0.00 0.00 0.00 55 1009.9
20260509185749 67 195 1.0 6.0 0.00 0.00 0.00 51 1009.9
20260509185245 67 151 1.0 4.0 0.00 0.00 0.00 50 1009.9
20260509184743 68 171 2.0 3.0 0.00 0.00 0.00 48 1009.9
20260509184241 69 211 2.0 2.0 0.00 0.00 0.00 50 1009.9
20260509183737 69 168 3.0 7.0 0.00 0.00 0.00 46 1010.0
20260509183232 68 61 5.0 8.0 0.00 0.00 0.00 50 1010.2
20260509182727 68 231 6.0 8.0 0.00 0.00 0.00 48 1010.1
20260509182226 67 10 3.0 3.0 0.00 0.00 0.00 47 1010.1
20260509181723 69 84 5.0 7.0 0.00 0.00 0.00 49 1010.4
20260509181220 69 179 2.0 6.0 0.00 0.00 0.00 47 1010.3
20260509180717 68 64 0.0 4.0 0.00 0.00 0.00 54 1010.5
20260509180213 68 68 1.0 2.0 0.00 0.00 0.00 48 1010.5
20260509175710 67 154 1.0 7.0 0.00 0.00 0.00 46 1010.5
20260509175206 68 118 0.0 2.0 0.00 0.00 0.00 48 1010.8
20260509174702 67 158 1.0 4.0 0.00 0.00 0.00 49 1010.8
20260509174156 67 33 0.0 3.0 0.00 0.00 0.00 48 1011.1
20260509173653 66 164 0.0 1.0 0.00 0.00 0.00 47 1011.1
20260509173149 66 206 0.0 1.0 0.00 0.00 0.00 50 1011.0
20260509172645 65 11 0.0 3.0 0.00 0.00 0.00 48 1010.6
20260509172142 64 340 3.0 4.0 0.00 0.00 0.00 51 1010.8
20260509171637 65 336 1.0 2.0 0.00 0.00 0.00 52 1011.1
20260509171134 64 312 4.0 4.0 0.00 0.00 0.00 49 1011.0
20260509170631 64 312 4.0 4.0 0.00 0.00 0.00 49 1010.8
20260509170127 64 344 3.0 4.0 0.00 0.00 0.00 51 1010.7
20260509165625 64 35 2.0 2.0 0.00 0.00 0.00 52 1011.1
20260509165121 64 46 1.0 2.0 0.00 0.00 0.00 49 1011.2
20260509164617 65 323 2.0 2.0 0.00 0.00 0.00 54 1011.2
20260509164113 64 324 1.0 2.0 0.00 0.00 0.00 50 1011.3
20260509163611 64 303 6.0 7.0 0.00 0.00 0.00 50 1011.3
20260509163106 64 303 6.0 7.0 0.00 0.00 0.00 50 1011.3
20260509162604 63 207 0.0 1.0 0.00 0.00 0.00 48 1011.2
20260509162059 64 320 4.0 6.0 0.00 0.00 0.00 49 1011.1
20260509161556 64 349 5.0 7.0 0.00 0.00 0.00 52 1011.2
20260509161050 64 353 6.0 8.0 0.00 0.00 0.00 51 1011.3
20260509160547 64 335 3.0 4.0 0.00 0.00 0.00 51 1011.2
20260509160042 64 292 3.0 4.0 0.00 0.00 0.00 46 1011.3
20260509155538 65 344 4.0 4.0 0.00 0.00 0.00 49 1011.1
20260509155035 66 16 3.0 3.0 0.00 0.00 0.00 47 1011.1
20260509154531 65 26 1.0 3.0 0.00 0.00 0.00 46 1010.7
20260509154029 65 307 3.0 3.0 0.00 0.00 0.00 48 1010.8
20260509153525 65 354 1.0 3.0 0.00 0.00 0.00 47 1010.7
20260509153022 65 76 0.0 1.0 0.00 0.00 0.00 44 1010.8
20260509152518 65 75 2.0 3.0 0.00 0.00 0.00 50 1011.0
20260509152015 65 118 0.0 2.0 0.00 0.00 0.00 46 1011.1
20260509151511 65 153 2.0 2.0 0.00 0.00 0.00 44 1011.2
20260509151010 65 279 1.0 4.0 0.00 0.00 0.00 44 1011.2
20260509150506 66 220 1.0 4.0 0.00 0.00 0.00 43 1011.1
20260509150005 66 167 1.0 3.0 0.00 0.00 0.00 43 1011.0
20260509145500 65 176 4.0 4.0 0.00 0.00 0.00 43 1011.2
20260509144955 65 153 2.0 3.0 0.00 0.00 0.00 45 1011.4
20260509144453 64 85 3.0 4.0 0.00 0.00 0.00 47 1011.2
20260509143950 64 47 0.0 2.0 0.00 0.00 0.00 46 1011.2
20260509143447 65 10 2.0 2.0 0.00 0.00 0.00 47 1011.2
20260509142943 64 346 3.0 3.0 0.00 0.00 0.00 48 1011.1
20260509142440 64 311 2.0 2.0 0.00 0.00 0.00 50 1011.3
20260509141935 64 355 0.0 3.0 0.00 0.00 0.00 50 1011.3
20260509141432 65 315 3.0 3.0 0.00 0.00 0.00 48 1011.3
20260509140929 64 168 1.0 2.0 0.00 0.00 0.00 50 1011.4
20260509140425 62 14 0.0 2.0 0.00 0.00 0.00 53 1011.6
20260509135924 63 31 1.0 1.0 0.00 0.00 0.00 52 1011.7
20260509135421 62 339 2.0 3.0 0.00 0.00 0.00 53 1011.7
20260509134918 62 339 2.0 3.0 0.00 0.00 0.00 53 1012.0
20260509134415 62 60 0.0 0.0 0.00 0.00 0.00 52 1011.7
20260509133913 61 91 0.0 0.0 0.00 0.00 0.00 58 1011.8
20260509133409 60 121 0.0 0.0 0.00 0.00 0.00 64 1011.9
20260509132908 60 121 0.0 0.0 0.00 0.00 0.00 68 1012.0
20260509132405 58 140 0.0 0.0 0.00 0.00 0.00 67 1012.0
20260509131902 58 140 0.0 0.0 0.00 0.00 0.00 67 1011.9
20260509131359 57 136 0.0 0.0 0.00 0.00 0.00 68 1011.8
20260509130856 56 131 0.0 0.0 0.00 0.00 0.00 68 1011.7
20260509130351 56 122 0.0 0.0 0.00 0.00 0.00 69 1011.8
20260509125848 55 117 0.0 0.0 0.00 0.00 0.00 70 1011.6
20260509125344 54 86 0.0 0.0 0.00 0.00 0.00 73 1011.8
20260509124841 53 4 0.0 0.0 0.00 0.00 0.00 77 1011.9
20260509124338 52 358 0.0 0.0 0.00 0.00 0.00 87 1011.9
20260509123836 52 133 0.0 0.0 0.00 0.00 0.00 89 1011.8
20260509123333 52 137 0.0 0.0 0.00 0.00 0.00 88 1011.9
20260509122828 51 137 0.0 0.0 0.00 0.00 0.00 88 1011.9
20260509122325 51 134 0.0 0.0 0.00 0.00 0.00 88 1012.0
20260509121822 50 133 0.0 0.0 0.00 0.00 0.00 87 1012.0
20260509121320 50 137 0.0 0.0 0.00 0.00 0.00 88 1012.0
20260509120818 51 139 0.0 0.0 0.00 0.00 0.00 89 1012.2
20260509120315 50 141 0.0 0.0 0.00 0.00 0.00 88 1012.2
20260509115814 50 140 0.0 0.0 0.00 0.00 0.00 90 1012.1
20260509115310 50 218 0.0 0.0 0.00 0.00 0.00 89 1012.0
20260509114808 50 247 0.0 0.0 0.00 0.00 0.00 88 1011.9
20260509114306 50 231 0.0 0.0 0.00 0.00 0.00 86 1011.9
20260509113805 49 100 0.0 0.0 0.00 0.00 0.00 86 1011.9
20260509113301 49 128 0.0 0.0 0.00 0.00 0.00 89 1011.9
20260509112758 49 305 0.0 0.0 0.00 0.00 0.00 89 1011.8
20260509112256 49 135 0.0 0.0 0.00 0.00 0.00 88 1011.9
20260509111753 48 132 0.0 0.0 0.00 0.00 0.00 88 1011.7
20260509111249 48 132 0.0 0.0 0.00 0.00 0.00 88 1011.7
20260509110747 48 120 0.0 0.0 0.00 0.00 0.00 89 1011.8
20260509110243 48 111 0.0 0.0 0.00 0.00 0.00 87 1011.7
20260509105741 48 107 0.0 0.0 0.00 0.00 0.00 87 1011.6
20260509105239 48 142 0.0 0.0 0.00 0.00 0.00 88 1011.6
20260509104735 47 172 0.0 0.0 0.00 0.00 0.00 87 1011.8
20260509104232 47 173 0.0 0.0 0.00 0.00 0.00 88 1011.5
20260509103731 47 166 0.0 0.0 0.00 0.00 0.00 88 1011.7
20260509103227 47 192 0.0 0.0 0.00 0.00 0.00 89 1011.7
20260509102726 47 100 0.0 0.0 0.00 0.00 0.00 88 1011.9
20260509102222 47 93 0.0 0.0 0.00 0.00 0.00 87 1011.8
20260509101719 47 134 0.0 0.0 0.00 0.00 0.00 87 1011.6
20260509101215 47 190 0.0 0.0 0.00 0.00 0.00 87 1011.6
20260509100713 47 195 0.0 0.0 0.00 0.00 0.00 87 1011.6
20260509100209 47 256 0.0 0.0 0.00 0.00 0.00 88 1011.6
20260509095707 47 149 0.0 0.0 0.00 0.00 0.00 89 1011.4
20260509095204 47 172 0.0 0.0 0.00 0.00 0.00 90 1011.6
20260509094700 47 162 0.0 0.0 0.00 0.00 0.00 90 1011.9
20260509094157 47 108 0.0 0.0 0.00 0.00 0.00 90 1011.6
20260509093656 47 65 0.0 0.0 0.00 0.00 0.00 90 1011.7
20260509093152 47 86 0.0 0.0 0.00 0.00 0.00 88 1011.8
20260509092650 47 175 0.0 0.0 0.00 0.00 0.00 87 1011.8
20260509092149 47 130 1.0 1.0 0.00 0.00 0.00 87 1012.0
20260509091646 47 279 0.0 0.0 0.00 0.00 0.00 89 1011.8
20260509091137 47 143 0.0 0.0 0.00 0.00 0.00 86 1011.8
20260509090635 47 131 0.0 0.0 0.00 0.00 0.00 87 1011.8
20260509090132 47 161 0.0 0.0 0.00 0.00 0.00 87 1011.6
20260509085629 47 162 0.0 0.0 0.00 0.00 0.00 89 1011.8
20260509085125 47 230 0.0 1.0 0.00 0.00 0.00 89 1011.7
20260509084623 47 99 0.0 0.0 0.00 0.00 0.00 89 1011.8
20260509084120 47 99 0.0 0.0 0.00 0.00 0.00 89 1011.8
20260509083617 47 176 0.0 0.0 0.00 0.00 0.00 89 1012.0
20260509083113 46 115 0.0 1.0 0.00 0.00 0.00 89 1011.9
20260509082611 46 164 0.0 0.0 0.00 0.00 0.00 88 1011.9
20260509082107 47 164 0.0 0.0 0.00 0.00 0.00 88 1012.0
20260509081605 46 165 0.0 0.0 0.00 0.00 0.00 87 1012.0
20260509081101 46 188 0.0 0.0 0.00 0.00 0.00 88 1012.2
20260509080600 46 171 0.0 0.0 0.00 0.00 0.00 89 1012.0
20260509080057 46 194 0.0 0.0 0.00 0.00 0.00 88 1012.1
20260509075555 46 198 0.0 0.0 0.00 0.00 0.00 88 1012.2
20260509075053 46 50 0.0 0.0 0.00 0.00 0.00 90 1012.2
20260509074549 46 8 0.0 0.0 0.00 0.00 0.00 89 1012.2
20260509074046 46 2 0.0 0.0 0.00 0.00 0.00 89 1012.4
20260509073542 46 330 0.0 0.0 0.00 0.00 0.00 88 1012.3
20260509073039 46 105 0.0 0.0 0.00 0.00 0.00 88 1012.2
20260509072535 46 229 0.0 0.0 0.00 0.00 0.00 89 1012.3
20260509072032 45 227 0.0 0.0 0.00 0.00 0.00 87 1012.5
20260509071529 45 182 0.0 0.0 0.00 0.00 0.00 87 1012.5
20260509071027 45 180 0.0 0.0 0.00 0.00 0.00 88 1012.4
20260509070524 45 198 0.0 0.0 0.00 0.00 0.00 89 1012.4
20260509070020 45 315 0.0 0.0 0.00 0.00 0.00 87 1012.4
20260509065515 45 110 0.0 0.0 0.00 0.00 0.00 86 1012.5
20260509065012 44 314 0.0 0.0 0.00 0.00 0.00 88 1012.5
20260509064510 44 311 0.0 0.0 0.00 0.00 0.00 88 1012.5
20260509064008 44 310 0.0 0.0 0.00 0.00 0.00 88 1012.6
20260509063502 45 88 0.0 0.0 0.00 0.00 0.00 88 1012.9
20260509063000 44 104 0.0 0.0 0.00 0.00 0.00 87 1012.5
20260509062457 44 150 0.0 0.0 0.00 0.00 0.00 88 1013.0
20260509061955 44 166 0.0 1.0 0.00 0.00 0.00 89 1012.9
20260509061452 44 233 0.0 0.0 0.00 0.00 0.00 88 1012.7
20260509060949 44 222 0.0 1.0 0.00 0.00 0.00 87 1012.6
20260509060446 44 102 1.0 1.0 0.00 0.00 0.00 86 1013.0
20260509055942 44 63 0.0 0.0 0.00 0.00 0.00 88 1013.0
20260509055437 44 92 0.0 0.0 0.00 0.00 0.00 87 1013.0
20260509054934 44 90 0.0 0.0 0.00 0.00 0.00 88 1013.0
20260509054430 44 333 0.0 0.0 0.00 0.00 0.00 88 1013.3
20260509053929 45 323 0.0 0.0 0.00 0.00 0.00 86 1013.2
20260509053426 45 131 0.0 0.0 0.00 0.00 0.00 86 1013.2
20260509052924 45 130 0.0 0.0 0.00 0.00 0.00 86 1013.1
20260509052421 45 130 0.0 0.0 0.00 0.00 0.00 86 1013.3
20260509051919 46 130 0.0 0.0 0.00 0.00 0.00 84 1013.3
20260509051417 46 135 0.0 0.0 0.00 0.00 0.00 83 1013.1
20260509050913 47 141 0.0 0.0 0.00 0.00 0.00 83 1013.3
20260509050410 47 109 0.0 0.0 0.00 0.00 0.00 81 1013.2
20260509045906 47 98 0.0 0.0 0.00 0.00 0.00 80 1013.1
20260509045403 47 93 0.0 0.0 0.00 0.00 0.00 84 1013.1
20260509044900 47 135 0.0 0.0 0.00 0.00 0.00 83 1013.0
20260509044358 48 235 0.0 0.0 0.00 0.00 0.00 82 1013.1
20260509043855 48 154 0.0 0.0 0.00 0.00 0.00 80 1013.0
20260509043350 48 115 1.0 1.0 0.00 0.00 0.00 77 1012.7
20260509042846 47 89 0.0 0.0 0.00 0.00 0.00 80 1013.2
20260509042343 48 85 0.0 0.0 0.00 0.00 0.00 82 1013.0
20260509041840 47 86 0.0 0.0 0.00 0.00 0.00 81 1013.1
20260509041336 47 92 0.0 0.0 0.00 0.00 0.00 81 1013.2
20260509040835 47 134 0.0 0.0 0.00 0.00 0.00 81 1013.2
20260509040332 47 137 0.0 0.0 0.00 0.00 0.00 81 1013.0
20260509035829 47 139 0.0 0.0 0.00 0.00 0.00 83 1013.0
20260509035326 47 139 0.0 0.0 0.00 0.00 0.00 82 1013.1
20260509034822 47 139 0.0 0.0 0.00 0.00 0.00 82 1012.9
20260509034320 47 140 0.0 0.0 0.00 0.00 0.00 81 1013.2
20260509033817 48 141 0.0 0.0 0.00 0.00 0.00 81 1013.3
20260509033314 48 142 0.0 1.0 0.00 0.00 0.00 80 1013.3
20260509032810 47 126 0.0 0.0 0.00 0.00 0.00 80 1013.2
20260509032308 47 122 0.0 0.0 0.00 0.00 0.00 81 1013.3
20260509031806 47 96 0.0 0.0 0.00 0.00 0.00 83 1013.5
20260509031303 47 77 0.0 0.0 0.00 0.00 0.00 82 1013.4
20260509030800 48 114 0.0 0.0 0.00 0.00 0.00 79 1013.5
20260509030258 47 127 2.0 2.0 0.00 0.00 0.00 76 1013.2
20260509025754 46 109 0.0 0.0 0.00 0.00 0.00 81 1013.4
20260509025250 46 59 0.0 0.0 0.00 0.00 0.00 82 1013.3
20260509024745 47 251 0.0 0.0 0.00 0.00 0.00 79 1013.5
20260509024242 48 134 0.0 0.0 0.00 0.00 0.00 77 1013.3
20260509023739 47 126 1.0 2.0 0.00 0.00 0.00 78 1013.2
20260509023236 46 96 1.0 2.0 0.00 0.00 0.00 80 1013.3
20260509022732 46 77 0.0 0.0 0.00 0.00 0.00 83 1013.4
20260509022230 47 53 0.0 1.0 0.00 0.00 0.00 79 1013.3
20260509021727 47 190 1.0 2.0 0.00 0.00 0.00 77 1013.3
20260509021224 47 183 1.0 1.0 0.00 0.00 0.00 78 1013.1
20260509020722 48 182 1.0 1.0 0.00 0.00 0.00 78 1013.3
20260509020219 48 80 2.0 2.0 0.00 0.00 0.00 75 1013.2
20260509015717 48 94 0.0 0.0 0.00 0.00 0.00 75 1013.2
20260509015215 48 69 0.0 1.0 0.00 0.00 0.00 76 1013.1
20260509014711 49 155 0.0 0.0 0.00 0.00 0.00 73 1013.1
20260509014208 48 162 0.0 0.0 0.00 0.00 0.00 72 1013.0
20260509013705 48 140 0.0 1.0 0.00 0.00 0.00 74 1013.1
20260509013200 49 297 0.0 1.0 0.00 0.00 0.00 73 1013.3
20260509012657 50 176 2.0 2.0 0.00 0.00 0.00 74 1013.4
20260509012154 50 121 0.0 3.0 0.00 0.00 0.00 69 1013.2
20260509011652 49 93 0.0 1.0 0.00 0.00 0.00 71 1013.1
20260509011149 50 152 0.0 0.0 0.00 0.00 0.00 69 1012.9
20260509010647 51 152 0.0 0.0 0.00 0.00 0.00 68 1013.1
20260509010143 51 161 0.0 0.0 0.00 0.00 0.00 66 1013.0
20260509005641 52 85 0.0 0.0 0.00 0.00 0.00 64 1012.7
20260509005137 52 132 0.0 0.0 0.00 0.00 0.00 63 1013.0
20260509004633 53 94 0.0 0.0 0.00 0.00 0.00 62 1013.0
20260509004130 53 111 0.0 0.0 0.00 0.00 0.00 60 1012.9
20260509003628 55 108 0.0 0.0 0.00 0.00 0.00 60 1013.0
20260509003125 56 104 1.0 2.0 0.00 0.00 0.00 53 1012.9
20260509002623 55 116 0.0 0.0 0.00 0.00 0.00 57 1012.9
20260509002120 56 141 0.0 0.0 0.00 0.00 0.00 53 1012.7
20260509001618 57 146 0.0 0.0 0.00 0.00 0.00 52 1013.0
20260509001113 57 227 1.0 1.0 0.00 0.00 0.00 51 1012.5
20260509000612 58 93 1.0 1.0 0.00 0.00 0.00 48 1012.6
20260509000108 58 136 0.0 0.0 0.00 0.00 0.00 51 1012.5
20260508235605 59 294 0.0 1.0 0.00 0.00 0.00 50 1012.2
20260508235101 60 84 0.0 1.0 0.00 0.00 0.00 49 1012.4
20260508234559 60 97 1.0 2.0 0.00 0.00 0.00 45 1012.2
20260508234055 61 244 1.0 2.0 0.00 0.00 0.00 48 1012.3
20260508233555 62 190 2.0 2.0 0.00 0.00 0.00 41 1012.0
20260508233052 63 207 2.0 2.0 0.00 0.00 0.00 43 1012.1
20260508232549 64 267 0.0 0.0 0.00 0.00 0.00 37 1012.1
20260508232046 64 119 0.0 0.0 0.00 0.00 0.00 37 1012.1
20260508231543 65 168 1.0 2.0 0.00 0.00 0.00 40 1012.0
20260508231040 65 251 0.0 2.0 0.00 0.00 0.00 44 1012.0
20260508230537 66 224 0.0 1.0 0.00 0.00 0.00 35 1011.9
20260508230033 66 111 0.0 3.0 0.00 0.00 0.00 36 1012.0
20260508225531 66 342 0.0 1.0 0.00 0.00 0.00 38 1011.8
20260508225027 67 267 2.0 3.0 0.00 0.00 0.00 34 1012.0
20260508224525 67 216 0.0 3.0 0.00 0.00 0.00 33 1011.9
20260508224022 66 239 2.0 2.0 0.00 0.00 0.00 35 1012.2
20260508223520 66 330 2.0 2.0 0.00 0.00 0.00 34 1012.1
20260508223017 66 327 2.0 3.0 0.00 0.00 0.00 34 1012.2
20260508222515 67 177 2.0 2.0 0.00 0.00 0.00 34 1012.1
20260508222011 67 355 1.0 1.0 0.00 0.00 0.00 36 1012.0
20260508221508 67 276 4.0 9.0 0.00 0.00 0.00 36 1011.9
20260508221003 66 331 7.0 11.0 0.00 0.00 0.00 35 1012.0
20260508220500 66 338 7.0 11.0 0.00 0.00 0.00 35 1012.0
20260508215956 67 328 5.0 6.0 0.00 0.00 0.00 33 1012.1
20260508215453 68 330 2.0 3.0 0.00 0.00 0.00 37 1011.8
20260508214950 67 265 2.0 7.0 0.00 0.00 0.00 32 1011.9
20260508214448 69 349 3.0 3.0 0.00 0.00 0.00 31 1012.0
20260508213943 69 182 3.0 6.0 0.00 0.00 0.00 33 1012.1
20260508213441 69 337 4.0 7.0 0.00 0.00 0.00 30 1012.2
20260508212936 69 331 4.0 7.0 0.00 0.00 0.00 32 1012.3